1529481600.69,39149,19.5,74802.8,14.09,7.69,7.77,0,*48
1529481601.94,39150,19.5,74804.8,14.11,6.69,6.69,0,*46
1529481603.12,39151,19.5,74806.5,14.05,7.41,7.51,0,*43
1529481604.3,39152,19.5,74806.0,14.05,7.45,7.55,0,*40
1529481605.48,39153,19.5,74806.0,14.05,7.05,7.09,0,*4C
1529481606.7,39154,19.5,74804.8,14.03,7.19,7.05,0,*4C
1529481607.89,39155,19.5,74808.0,14.03,7.01,7.09,0,*48
1529481609.09,39156,19.5,74806.8,14.03,8.09,8.09,0,*43
1529481610.32,39157,19.5,74806.3,14.03,7.95,7.97,0,*40
1529481611.54,39158,19.5,74808.3,14.03,7.01,7.15,0,*48
1529481612.79,39159,19.5,74808.3,13.99,6.17,6.17,0,*48
1529481613.96,39160,19.5,74806.8,14.01,7.01,7.05,0,*40
1529481615.17,39161,19.5,74800.3,13.99,7.59,7.59,0,*43
1529481616.38,39162,19.5,74804.3,13.99,7.45,7.55,0,*41
1529481617.61,39163,19.5,74808.0,14.01,7.91,7.95,0,*43
1529481618.82,39164,19.5,74806.8,13.99,8.01,8.05,0,*42
1529481620.0,39165,19.5,74804.8,14.01,8.01,8.01,0,*41
1529481621.24,39166,19.5,74806.0,14.01,7.69,7.69,0,*42
1529481622.45,39167,19.5,74806.5,13.99,7.59,7.59,0,*45
1529481623.69,39168,19.5,74806.8,13.99,6.97,6.91,0,*4C
1529481624.88,39169,19.5,74810.8,13.97,7.29,7.29,0,*45
1529481626.06,39170,19.5,74806.8,13.97,7.55,7.55,0,*4D
1529481627.32,39171,19.5,74808.3,13.95,7.91,7.91,0,*4E
1529481628.55,39172,19.5,74810.8,13.97,7.69,7.65,0,*43
1529481629.72,39173,19.5,74810.3,13.97,7.41,7.41,0,*4E
1529481630.95,39174,19.5,74806.0,13.97,7.19,7.11,0,*41
1529481632.16,39175,19.5,74804.8,13.97,7.19,7.29,0,*4B
1529481633.4,39176,19.5,74808.5,13.95,8.13,8.01,0,*4A
1529481634.6,39177,19.5,74810.8,13.95,7.01,6.93,0,*42
1529481635.83,39178,19.5,74806.8,13.95,6.87,6.83,0,*43
1529481637.07,39179,19.5,74808.0,13.91,6.93,6.91,0,*40
1529481638.31,39180,19.5,74808.8,13.91,6.43,6.21,0,*40
1529481639.53,39181,19.5,74812.5,13.91,6.25,6.33,0,*42
1529481640.71,39182,19.5,74804.3,13.89,7.37,7.37,0,*4F
1529481641.9,39183,19.5,74806.8,13.87,6.29,6.21,0,*48
1529481643.1,39184,19.5,74808.8,13.87,6.91,6.97,0,*41
1529481644.3,39185,19.5,74808.5,13.87,6.75,6.87,0,*4B
1529481645.49,39186,19.5,74808.0,13.87,6.21,6.33,0,*46
1529481646.7,39187,19.5,74808.8,13.85,6.93,7.05,0,*48
1529481647.9,39188,19.5,74808.3,13.81,6.93,7.05,0,*43
1529481649.14,39189,19.5,74806.5,13.85,7.73,8.01,0,*42
1529481650.32,39190,19.5,74810.8,13.87,8.09,8.19,0,*43
1529481651.55,39191,19.56,74812.0,13.87,7.69,7.69,0,*43
1529481652.73,39192,19.5,74810.3,13.87,7.51,7.59,0,*48
1529481653.94,39193,19.5,74808.0,13.87,7.55,7.65,0,*42
1529481655.16,39194,19.5,74810.3,13.87,7.69,7.87,0,*46
1529481656.37,39195,19.5,74808.3,13.89,8.05,8.13,0,*4E
1529481657.55,39196,19.5,74808.3,13.87,7.97,8.19,0,*4D
1529481658.79,39197,19.5,74808.5,13.89,7.91,8.13,0,*4E
1529481660.0,39198,19.5,74810.5,13.89,8.47,8.61,0,*40
1529481661.19,39199,19.5,74808.0,13.89,9.03,9.25,0,*41
1529481662.42,39200,19.5,74808.0,13.93,8.97,9.11,0,*42
1529481663.6,39201,19.5,74810.3,13.93,8.61,8.83,0,*40
1529481664.84,39202,19.5,74812.0,13.93,8.55,8.75,0,*4D
1529481666.07,39203,19.5,74812.3,13.95,8.75,9.07,0,*4C
1529481667.28,39204,19.5,74812.5,13.97,8.79,8.97,0,*4D
1529481668.49,39205,19.5,74810.8,13.97,8.23,8.33,0,*4D
1529481669.67,39206,19.5,74810.3,13.97,8.19,8.23,0,*46
1529481670.88,39207,19.5,74810.8,13.97,8.79,8.97,0,*4E
1529481672.09,39208,19.5,74810.0,14.01,9.01,9.29,0,*43
1529481673.29,39209,19.5,74810.3,14.01,8.47,8.79,0,*45
1529481674.5,39210,19.5,74812.0,14.01,8.59,8.83,0,*47
1529481675.76,39211,19.5,74810.3,14.03,8.71,8.93,0,*4F
1529481676.96,39212,19.5,74810.0,14.05,9.11,9.33,0,*46
1529481678.16,39213,19.5,74812.8,14.05,8.59,8.65,0,*48
1529481679.34,39214,19.56,74814.8,14.09,9.25,9.29,0,*40
1529481680.54,39215,19.5,74812.5,14.11,8.69,8.83,0,*40
1529481681.74,39216,19.5,74810.5,14.11,8.01,8.05,0,*43
1529481682.94,39217,19.5,74814.8,14.09,7.95,8.01,0,*4D
1529481684.15,39218,19.5,74810.3,14.11,8.23,8.27,0,*4D
1529481685.36,39219,19.5,74808.0,14.13,7.87,8.15,0,*4E
1529481686.58,39220,19.5,74812.0,14.13,8.71,8.97,0,*48
1529481687.83,39221,19.5,74808.5,14.15,8.97,9.39,0,*42
1529481689.04,39222,19.5,74810.5,14.15,7.79,8.09,0,*4C
1529481690.26,39223,19.5,74808.0,14.15,8.05,8.37,0,*44
1529481691.44,39224,19.5,74808.5,14.17,7.97,8.19,0,*49
1529481692.65,39225,19.5,74808.3,14.17,7.23,7.45,0,*41
1529481693.85,39226,19.5,74808.3,14.13,7.41,7.61,0,*44
1529481695.1,39227,19.5,74806.8,14.15,7.47,7.83,0,*49
1529481696.32,39228,19.5,74810.0,14.15,8.15,8.27,0,*4F
1529481697.53,39229,19.5,74806.5,14.15,7.29,7.59,0,*48
1529481698.78,39230,19.5,74804.3,14.15,6.51,6.73,0,*47
1529481699.96,39231,19.5,74806.5,14.13,7.05,7.37,0,*41
1529481701.19,39232,19.5,74804.3,14.13,7.69,7.95,0,*40
1529481702.44,39233,19.5,74806.3,14.11,7.95,8.33,0,*43
1529481703.65,39234,19.5,74804.3,14.09,8.23,8.47,0,*4C
1529481704.88,39235,19.5,74808.3,14.09,8.55,8.89,0,*4E
1529481706.09,39236,19.56,74812.5,14.13,9.07,9.39,0,*4A
1529481707.29,39237,19.5,74810.0,14.13,9.19,9.29,0,*45
1529481708.52,39238,19.5,74806.3,14.15,8.93,9.03,0,*47
1529481709.75,39239,19.5,74806.5,14.17,8.55,8.75,0,*4E
1529481711.01,39240,19.5,74806.8,14.15,8.41,8.59,0,*49
1529481712.24,39241,19.5,74804.5,14.17,8.55,8.75,0,*41
1529481713.48,39242,19.5,74810.0,14.17,8.97,9.19,0,*47
1529481714.68,39243,19.5,74808.3,14.17,9.21,9.53,0,*44
1529481715.89,39244,19.5,74808.0,14.19,9.33,9.47,0,*4B
1529481717.13,39245,19.56,74812.8,14.19,8.93,9.15,0,*46
1529481718.37,39246,19.5,74808.5,14.21,9.33,9.61,0,*46
1529481719.61,39247,19.5,74808.8,14.21,9.67,9.77,0,*41
1529481720.84,39248,19.5,74812.0,14.21,8.79,8.71,0,*47
1529481722.08,39249,19.5,74812.0,14.21,7.47,7.45,0,*4C
1529481723.29,39250,19.56,74814.8,14.21,8.23,8.23,0,*46
1529481724.55,39251,19.5,74808.5,14.21,7.91,7.87,0,*40
1529481725.79,39252,19.5,74810.8,14.21,7.33,7.27,0,*41
1529481727.01,39253,19.5,74804.8,14.19,7.23,7.09,0,*46
1529481728.21,39254,19.56,74808.5,14.17,6.83,6.65,0,*4F
1529481729.44,39255,19.5,74808.3,14.17,6.61,6.39,0,*4B
1529481730.62,39256,19.5,74808.3,14.13,6.93,6.79,0,*45
1529481731.83,39257,19.5,74810.0,14.13,7.79,7.69,0,*41
1529481733.03,39258,19.5,74814.0,14.13,7.19,7.01,0,*46
1529481734.23,39259,19.5,74810.3,14.13,8.29,8.19,0,*4D
1529481735.43,39260,19.5,74810.0,14.13,7.95,7.79,0,*46
1529481736.63,39261,19.5,74808.3,14.13,8.29,8.19,0,*46
1529481737.86,39262,19.5,74804.5,14.13,8.75,8.59,0,*48
1529481739.08,39263,19.5,74808.5,14.15,8.61,8.29,0,*4D
1529481740.28,39264,19.56,74810.0,14.17,8.61,8.29,0,*48
1529481741.49,39265,19.5,74810.0,14.17,8.87,8.51,0,*4E
1529481742.72,39266,19.5,74806.8,14.17,8.75,8.41,0,*41
1529481743.94,39267,19.5,74810.3,14.17,8.75,8.29,0,*4E
1529481745.2,39268,19.56,74810.3,14.19,8.55,7.95,0,*45
1529481746.43,39269,19.5,74808.3,14.19,8.59,7.79,0,*4A
1529481747.68,39270,19.56,74810.5,14.19,8.71,8.13,0,*4B
1529481748.87,39271,19.56,74812.3,14.23,8.15,7.29,0,*47
1529481750.1,39272,19.5,74810.5,14.21,7.69,7.01,0,*48
1529481751.33,39273,19.5,74808.8,14.23,7.23,6.57,0,*47
1529481752.58,39274,19.56,74808.8,14.21,7.47,6.57,0,*40
1529481753.81,39275,19.5,74804.8,14.23,7.27,6.61,0,*40
1529481755.01,39276,19.56,74808.0,14.23,7.37,6.61,0,*42
1529481756.24,39277,19.5,74804.8,14.25,7.61,6.93,0,*4B
1529481757.47,39278,19.5,74810.5,14.27,7.65,7.27,0,*4C
1529481758.65,39279,19.5,74806.8,14.27,7.33,7.05,0,*4E
1529481759.85,39280,19.56,74808.0,14.27,7.19,6.83,0,*4F
1529481761.06,39281,19.5,74806.5,14.31,7.77,7.01,0,*4A
1529481762.31,39282,19.5,74810.3,14.33,7.27,6.65,0,*4D
1529481763.5,39283,19.5,74808.5,14.31,7.29,6.75,0,*41
1529481764.74,39284,19.56,74810.0,14.33,6.33,5.93,0,*45
1529481765.98,39285,19.56,74810.5,14.37,5.95,5.55,0,*45
1529481767.19,39286,19.56,74810.5,14.37,4.57,4.41,0,*4D
1529481768.46,39287,19.5,74810.8,14.37,3.75,4.05,0,*4B
1529481769.7,39288,19.56,74810.5,14.37,2.85,3.81,0,*41
1529481770.93,39289,19.56,74808.0,14.39,3.53,5.01,0,*4A
1529481772.14,39290,19.5,74804.0,14.39,3.79,5.71,0,*4D
1529481773.36,39291,19.56,74806.0,14.41,5.37,7.47,0,*48
1529481774.57,39292,19.56,74804.5,14.41,5.71,8.15,0,*41
1529481775.8,39293,19.5,74806.0,14.45,5.67,8.41,0,*42
1529481777.02,39294,19.5,74806.0,14.49,6.75,9.35,0,*4B
1529481778.26,39295,19.5,74804.3,14.49,7.97,10.31,0,*7B
1529481779.51,39296,19.5,74800.8,14.59,8.37,10.33,0,*7E
1529481780.77,39297,19.56,74806.5,14.63,8.89,10.57,0,*71
1529481782.0,39298,19.56,74804.8,14.63,9.57,10.89,0,*7F
1529481783.23,39299,19.5,74804.8,14.65,9.89,11.03,0,*78
1529481784.49,39300,19.5,74804.5,14.67,9.81,10.65,0,*72
1529481785.7,39301,19.56,74804.0,14.71,10.51,11.09,0,*4A
1529481786.95,39302,19.5,74806.8,14.75,10.69,11.23,0,*4E
1529481788.19,39303,19.56,74804.8,14.77,10.61,11.23,0,*45
1529481789.38,39304,19.5,74804.5,14.81,10.33,10.89,0,*4D
1529481790.62,39305,19.5,74806.3,14.85,10.57,10.99,0,*4B
1529481791.84,39306,19.5,74808.5,14.85,10.33,10.57,0,*48
1529481793.02,39307,19.5,74806.5,14.85,10.13,9.99,0,*71
1529481794.23,39308,19.56,74810.3,14.85,9.39,9.21,0,*4D
1529481795.49,39309,19.56,74806.8,14.87,9.35,9.19,0,*49
1529481796.7,39310,19.56,74808.3,14.89,8.89,8.65,0,*43
1529481797.88,39311,19.56,74810.5,14.89,8.65,8.61,0,*44
1529481799.11,39312,19.5,74804.3,14.91,8.65,8.37,0,*4D
1529481800.36,39313,19.56,74804.0,14.91,6.65,6.69,0,*47
1529481801.6,39314,19.56,74804.0,14.91,7.23,7.45,0,*4C
1529481802.8,39315,19.56,74804.3,14.93,7.33,7.65,0,*4C
1529481804.05,39316,19.56,74808.5,14.91,7.19,7.87,0,*49
1529481805.3,39317,19.56,74810.0,14.95,8.71,9.15,0,*48
1529481806.55,39318,19.56,74808.0,14.95,9.49,9.91,0,*41
1529481807.8,39319,19.56,74812.0,14.99,8.75,9.01,0,*4B
1529481809.05,39320,19.5,74808.0,15.03,8.15,8.59,0,*49
1529481810.26,39321,19.56,74810.5,15.03,9.33,9.91,0,*48
1529481811.49,39322,19.56,74810.3,15.07,8.61,9.35,0,*47
1529481812.72,39323,19.56,74808.5,15.11,8.65,9.35,0,*45
1529481813.95,39324,19.56,74810.5,15.15,9.19,9.91,0,*42
1529481815.22,39325,19.56,74808.0,15.15,9.39,10.27,0,*74
1529481816.49,39326,19.56,74806.5,15.21,9.85,10.65,0,*71
1529481817.74,39327,19.5,74806.8,15.21,10.17,10.83,0,*4B
1529481818.99,39328,19.56,74810.5,15.25,10.33,11.07,0,*4B
1529481820.22,39329,19.56,74808.3,15.27,10.57,11.27,0,*48
1529481821.44,39330,19.56,74810.3,15.29,10.51,11.13,0,*4F
1529481822.63,39331,19.56,74810.3,15.31,10.33,10.85,0,*4D
1529481823.84,39332,19.56,74810.3,15.33,10.55,10.89,0,*40
1529481825.07,39333,19.56,74808.8,15.35,10.33,10.79,0,*48
1529481826.27,39334,19.56,74810.8,15.37,9.95,10.43,0,*70
1529481827.47,39335,19.56,74810.3,15.35,9.61,9.95,0,*4B
1529481828.72,39336,19.56,74804.0,15.37,7.69,8.13,0,*43
1529481829.94,39337,19.56,74806.3,15.35,7.23,7.79,0,*4D
1529481831.15,39338,19.56,74808.5,15.35,7.77,8.27,0,*47
1529481832.4,39339,19.56,74806.8,15.33,8.29,8.75,0,*43
1529481833.63,39340,19.56,74806.0,15.33,9.15,9.75,0,*42
1529481834.9,39341,19.5,74804.0,15.33,9.53,10.19,0,*73
1529481836.11,39342,19.56,74810.8,15.35,9.25,9.77,0,*47
1529481837.34,39343,19.56,74810.8,15.35,8.93,9.39,0,*40
1529481838.55,39344,19.56,74810.3,15.35,9.19,9.67,0,*4F
1529481839.82,39345,19.56,74808.0,15.37,9.77,10.27,0,*78
1529481841.09,39346,19.56,74810.8,15.37,9.81,10.27,0,*72
1529481842.29,39347,19.56,74810.3,15.39,9.29,9.57,0,*40
1529481843.53,39348,19.56,74810.0,15.43,9.77,10.31,0,*71
1529481844.78,39349,19.56,74810.8,15.43,9.85,10.19,0,*77
1529481846.02,39350,19.56,74808.5,15.45,9.89,10.05,0,*78
1529481847.24,39351,19.56,74810.0,15.45,10.03,10.13,0,*44
1529481848.48,39352,19.5,74806.5,15.45,10.47,10.71,0,*43
1529481849.69,39353,19.56,74810.8,15.49,10.51,10.83,0,*44
1529481850.88,39354,19.56,74808.8,15.49,9.95,10.17,0,*7E
1529481852.15,39355,19.56,74808.5,15.51,9.49,9.81,0,*40
1529481853.36,39356,19.56,74808.0,15.51,9.91,10.09,0,*7E
1529481854.6,39357,19.56,74810.3,15.51,9.39,9.43,0,*4B
1529481855.84,39358,19.56,74810.5,15.51,9.33,9.49,0,*44
1529481857.1,39359,19.56,74808.5,15.55,9.35,9.57,0,*48
1529481858.31,39360,19.56,74810.8,15.55,9.25,9.47,0,*42
1529481859.54,39361,19.56,74810.5,15.53,8.89,9.19,0,*49
1529481860.78,39362,19.56,74808.0,15.53,8.13,8.51,0,*44
1529481861.98,39363,19.56,74804.5,15.53,9.33,9.77,0,*43
1529481863.17,39364,19.56,74808.0,15.53,8.83,9.25,0,*49
1529481864.42,39365,19.56,74808.3,15.55,8.59,8.89,0,*4E
1529481865.67,39366,19.56,74808.0,15.55,8.27,8.55,0,*45
1529481866.87,39367,19.56,74808.0,15.53,8.69,9.01,0,*48
1529481868.13,39368,19.56,74810.8,15.55,9.01,9.35,0,*49
1529481869.33,39369,19.56,74810.5,15.53,8.97,9.29,0,*4D
1529481870.52,39370,19.56,74808.0,15.53,8.79,9.07,0,*49
1529481871.71,39371,19.56,74806.8,15.53,8.23,8.61,0,*46
1529481872.91,39372,19.5,74804.0,15.53,8.41,8.79,0,*48
1529481874.12,39373,19.5,74804.0,15.53,9.53,9.95,0,*48
1529481875.31,39374,19.56,74808.0,15.53,9.43,9.75,0,*40
1529481876.54,39375,19.56,74808.5,15.55,8.47,8.83,0,*4A
1529481877.75,39376,19.56,74806.3,15.53,7.51,7.95,0,*4F
1529481878.95,39377,19.56,74808.3,15.53,8.01,8.51,0,*43
1529481880.13,39378,19.56,74808.3,15.53,8.65,8.87,0,*45
1529481881.36,39379,19.56,74810.8,15.55,9.33,9.39,0,*44
1529481882.59,39380,19.56,74808.3,15.53,8.89,8.97,0,*41
1529481883.79,39381,19.56,74810.5,15.53,8.51,8.61,0,*4C
1529481884.98,39382,19.56,74806.3,15.53,8.87,8.87,0,*4C
1529481886.19,39383,19.56,74808.8,15.55,9.33,9.21,0,*48
1529481887.43,39384,19.5,74804.3,15.55,9.91,9.81,0,*4D
1529481888.66,39385,19.56,74806.0,15.55,9.89,9.67,0,*4D
1529481889.9,39386,19.56,74806.5,15.55,9.89,9.71,0,*49
1529481891.1,39387,19.56,74806.0,15.55,9.91,9.71,0,*41
1529481892.37,39388,19.56,74804.3,15.59,9.85,9.85,0,*4C
1529481893.58,39389,19.56,74804.3,15.57,9.67,9.49,0,*4F
1529481894.79,39390,19.56,74804.3,15.57,9.67,9.49,0,*47
1529481895.98,39391,19.56,74804.3,15.57,9.33,9.25,0,*4D
1529481897.21,39392,19.56,74804.3,15.57,9.11,9.11,0,*49
1529481898.42,39393,19.56,74806.0,15.57,9.47,9.35,0,*4D
1529481899.63,39394,19.56,74804.0,15.57,9.71,9.49,0,*44
1529481900.84,39395,19.56,74804.5,15.57,9.33,9.15,0,*4A
1529481902.04,39396,19.56,74806.8,15.57,9.33,9.11,0,*4D
1529481903.25,39397,19.56,74806.5,15.57,8.83,8.71,0,*41
1529481904.43,39398,19.56,74806.3,15.57,8.83,8.65,0,*4B
1529481905.64,39399,19.56,74804.8,15.57,8.33,8.23,0,*43
1529481906.87,39400,19.56,74804.3,15.53,7.83,7.73,0,*4E
1529481908.08,39401,19.56,74808.3,15.53,7.77,7.55,0,*40
1529481909.26,39402,19.56,74808.0,15.53,7.55,7.41,0,*46
1529481910.49,39403,19.56,74806.3,15.49,7.47,7.47,0,*49
1529481911.7,39404,19.56,74804.8,15.45,8.27,8.27,0,*42
1529481912.9,39405,19.56,74802.3,15.47,8.71,8.61,0,*40
1529481914.14,39406,19.56,74804.0,15.47,8.47,8.33,0,*41
1529481915.39,39407,19.56,74804.3,15.45,8.59,8.47,0,*4E
1529481916.62,39408,19.56,74802.5,15.43,8.51,8.33,0,*4C
1529481917.84,39409,19.56,74802.8,15.43,7.83,7.65,0,*41
1529481919.07,39410,19.56,74802.5,15.43,8.41,8.33,0,*44
1529481920.27,39411,19.56,74806.3,15.39,8.71,8.65,0,*48
1529481921.5,39412,19.56,74804.5,15.39,8.55,8.51,0,*4A
1529481922.73,39413,19.56,74808.0,15.39,8.51,8.37,0,*4F
1529481923.96,39414,19.56,74806.5,15.37,8.23,7.83,0,*43
1529481925.2,39415,19.56,74806.5,15.35,7.91,7.65,0,*4E
1529481926.42,39416,19.56,74802.5,15.35,7.69,7.47,0,*4A
1529481927.65,39417,19.56,74804.3,15.33,7.73,7.55,0,*45
1529481928.91,39418,19.56,74804.8,15.33,7.91,7.91,0,*4E
1529481930.15,39419,19.56,74804.3,15.31,7.77,7.73,0,*49
1529481931.33,39420,19.56,74806.5,15.31,8.19,8.09,0,*46
1529481932.54,39421,19.56,74804.0,15.31,6.53,6.33,0,*40
1529481933.77,39422,19.56,74806.3,15.29,6.35,6.21,0,*49
1529481934.95,39423,19.56,74806.0,15.27,7.01,7.05,0,*47
1529481936.14,39424,19.56,74802.5,15.27,7.79,8.05,0,*40
1529481937.35,39425,19.56,74804.0,15.27,7.79,8.13,0,*46
1529481938.57,39426,19.56,74802.0,15.25,7.29,7.29,0,*44
1529481939.77,39427,19.56,74800.5,15.25,5.63,6.21,0,*40
1529481941.03,39428,19.56,74804.5,15.25,6.13,6.53,0,*4E
1529481942.26,39429,19.56,74802.8,15.23,6.13,6.17,0,*49
1529481943.5,39430,19.56,74806.3,15.23,6.87,7.19,0,*43
1529481944.71,39431,19.56,74804.5,15.23,6.03,6.61,0,*40
1529481945.92,39432,19.56,74804.3,15.21,6.29,7.05,0,*4A
1529481947.16,39433,19.56,74810.0,15.21,6.47,7.59,0,*4A
1529481948.4,39434,19.56,74804.5,15.21,8.05,9.01,0,*46
1529481949.6,39435,19.56,74806.0,15.25,8.01,9.21,0,*45
1529481950.86,39436,19.56,74804.0,15.29,7.15,8.55,0,*42
1529481952.08,39437,19.56,74806.5,15.35,6.65,8.15,0,*4C
1529481953.31,39438,19.56,74804.8,15.33,6.29,7.87,0,*49
1529481954.54,39439,19.56,74806.5,15.33,6.39,8.01,0,*48
1529481955.77,39440,19.56,74804.0,15.33,6.07,7.87,0,*4A
1529481957.01,39441,19.56,74806.5,15.35,6.43,8.13,0,*4F
1529481958.22,39442,19.56,74806.8,15.35,6.11,7.95,0,*4A
1529481959.46,39443,19.56,74806.5,15.37,6.29,8.33,0,*41
1529481960.69,39444,19.56,74804.3,15.37,5.85,8.05,0,*46
1529481961.9,39445,19.56,74808.0,15.43,6.43,8.87,0,*47
1529481963.11,39446,19.56,74804.5,15.43,6.93,9.01,0,*46
1529481964.34,39447,19.56,74806.5,15.43,6.61,8.59,0,*46
1529481965.56,39448,19.56,74804.8,15.45,6.21,8.45,0,*46
1529481966.74,39449,19.56,74810.5,15.47,6.75,8.83,0,*4E
1529481967.94,39450,19.56,74804.3,15.49,7.37,9.39,0,*4F
1529481969.18,39451,19.56,74808.5,15.55,8.27,10.37,0,*7B
1529481970.36,39452,19.56,74806.5,15.61,8.83,10.93,0,*7F
1529481971.59,39453,19.56,74806.8,15.63,7.51,9.39,0,*44
1529481972.8,39454,19.56,74804.8,15.69,7.23,8.87,0,*48
1529481974.01,39455,19.56,74804.5,15.73,6.51,7.97,0,*48
1529481975.19,39456,19.56,74806.0,15.73,6.29,7.45,0,*4B
1529481976.41,39457,19.56,74806.3,15.77,5.27,6.47,0,*40
1529481977.62,39458,19.56,74808.0,15.75,5.41,6.53,0,*48
1529481978.83,39459,19.56,74808.0,15.77,3.79,5.33,0,*43
1529481980.03,39460,19.56,74804.8,15.77,3.41,5.15,0,*46
1529481981.24,39461,19.56,74806.5,15.77,2.95,4.93,0,*40
1529481982.41,39462,19.56,74806.3,15.77,2.91,5.41,0,*49
1529481983.64,39463,19.56,74808.3,15.79,4.63,7.51,0,*4E
1529481984.85,39464,19.56,74806.5,15.83,7.05,9.49,0,*48
1529481986.08,39465,19.56,74806.0,15.89,8.93,11.55,0,*77
1529481987.31,39466,19.56,74804.8,15.97,10.03,12.17,0,*4E
1529481988.54,39467,19.56,74808.8,16.05,8.55,11.93,0,*72
1529481989.79,39468,19.56,74808.8,16.13,7.37,10.83,0,*71
1529481991.01,39469,19.56,74804.5,16.17,6.75,10.09,0,*71
1529481992.26,39470,19.56,74800.5,16.21,5.77,9.39,0,*46
1529481993.49,39471,19.56,74802.8,16.21,5.99,9.39,0,*47
1529481994.71,39472,19.56,74804.0,16.23,7.51,10.41,0,*77
1529481995.93,39473,19.56,74806.3,16.27,8.55,10.93,0,*76
1529481997.17,39474,19.56,74804.0,16.29,7.45,9.49,0,*4E
1529481998.42,39475,19.56,74808.0,16.29,7.29,8.89,0,*48
1529481999.66,39476,19.56,74808.3,16.29,8.27,9.61,0,*4D
1529482000.9,39477,19.56,74808.8,16.31,8.51,9.81,0,*4A
1529482002.12,39478,19.56,74804.3,16.31,7.95,9.07,0,*4C
1529482003.38,39479,19.56,74810.0,16.33,7.87,8.89,0,*4B
1529482004.64,39480,19.56,74804.8,16.37,7.47,8.47,0,*47
1529482005.88,39481,19.56,74806.3,16.33,7.73,8.87,0,*49
1529482007.15,39482,19.56,74804.5,16.33,8.13,9.19,0,*45
1529482008.36,39483,19.56,74806.3,16.37,8.87,9.99,0,*45
1529482009.6,39484,19.56,74806.8,16.37,9.53,10.43,0,*75
1529482010.82,39485,19.56,74808.0,16.39,8.93,10.03,0,*73
1529482012.04,39486,19.56,74806.5,16.41,9.71,10.69,0,*7E
1529482013.24,39487,19.56,74806.0,16.43,10.17,10.89,0,*4B
1529482014.42,39488,19.56,74810.0,16.45,10.43,10.85,0,*4F
1529482015.66,39489,19.56,74804.8,16.45,9.19,9.61,0,*4B
1529482016.88,39490,19.56,74804.0,16.45,9.99,10.27,0,*71
1529482018.11,39491,19.56,74804.5,16.45,10.85,11.03,0,*42
1529482019.33,39492,19.56,74806.8,16.47,10.43,10.47,0,*48
1529482020.57,39493,19.56,74804.3,16.47,9.77,9.91,0,*45
1529482021.77,39494,19.56,74802.3,16.49,10.03,10.03,0,*44
1529482022.96,39495,19.56,74806.5,16.49,9.95,10.03,0,*72
1529482024.2,39496,19.56,74806.3,16.47,9.71,9.57,0,*4C
1529482025.41,39497,19.56,74802.5,16.47,9.67,9.43,0,*4F
1529482026.62,39498,19.56,74804.3,16.47,9.91,9.63,0,*4B
1529482027.84,39499,19.56,74804.5,16.49,10.09,9.89,0,*79
1529482029.08,39500,19.56,74808.5,16.47,9.81,9.71,0,*49
1529482030.31,39501,19.56,74808.0,16.47,9.57,9.67,0,*44
1529482031.53,39502,19.56,74810.5,16.45,9.85,9.99,0,*4B
1529482032.75,39503,19.56,74808.3,16.43,9.49,9.71,0,*4A
1529482033.99,39504,19.56,74812.0,16.43,9.15,9.19,0,*4A
1529482035.24,39505,19.56,74810.5,16.41,9.61,9.61,0,*45
1529482036.5,39506,19.56,74810.8,16.41,9.49,9.57,0,*49
1529482037.75,39507,19.56,74806.5,16.41,9.49,9.75,0,*48
1529482039.01,39508,19.56,74808.5,16.41,9.57,9.85,0,*47
1529482040.24,39509,19.56,74810.5,16.39,9.35,9.61,0,*47
1529482041.43,39510,19.56,74810.0,16.39,9.71,9.91,0,*40
1529482042.66,39511,19.56,74806.8,16.39,10.03,10.23,0,*4D
1529482043.87,39512,19.56,74808.5,16.39,10.65,10.85,0,*42
1529482045.14,39513,19.56,74810.3,16.41,10.41,10.71,0,*41
1529482046.39,39514,19.56,74810.0,16.39,10.31,10.65,0,*4B
1529482047.67,39515,19.56,74808.8,16.41,10.79,11.07,0,*4C
1529482048.92,39516,19.56,74808.8,16.41,10.31,10.51,0,*41
1529482050.18,39517,19.56,74810.0,16.41,10.27,10.41,0,*46
1529482051.46,39518,19.56,74804.5,16.41,10.83,10.99,0,*42
1529482052.7,39519,19.56,74804.8,16.41,10.71,10.93,0,*44
1529482053.91,39520,19.56,74808.5,16.43,10.89,11.23,0,*41
1529482055.11,39521,19.56,74806.3,16.45,11.51,11.93,0,*49
1529482056.39,39522,19.56,74806.0,16.47,11.41,11.75,0,*41
1529482057.63,39523,19.56,74808.5,16.49,11.75,12.09,0,*41
1529482058.83,39524,19.56,74808.5,16.49,11.55,11.99,0,*4E
1529482060.08,39525,19.56,74808.5,16.51,11.67,11.81,0,*4E
1529482061.33,39526,19.56,74808.8,16.53,11.37,11.61,0,*44
1529482062.55,39527,19.56,74804.0,16.53,11.03,11.21,0,*46
1529482063.77,39528,19.56,74808.5,16.55,11.21,11.51,0,*48
1529482065.04,39529,19.56,74810.3,16.55,10.71,10.75,0,*4A
1529482066.26,39530,19.56,74810.0,16.59,10.43,10.55,0,*4D
1529482067.5,39531,19.56,74808.8,16.55,10.55,10.61,0,*40
1529482068.77,39532,19.56,74806.0,16.59,10.65,10.79,0,*45
1529482070.01,39533,19.56,74808.8,16.55,10.93,11.03,0,*4D
1529482071.26,39534,19.56,74810.0,16.59,10.55,10.65,0,*4D
1529482072.49,39535,19.56,74808.3,16.59,9.25,9.35,0,*4E
1529482073.71,39536,19.56,74810.0,16.59,9.67,9.75,0,*4F
1529482074.94,39537,19.56,74808.5,16.55,9.77,9.99,0,*41
1529482076.18,39538,19.56,74808.5,16.55,9.49,9.71,0,*45
1529482077.39,39539,19.56,74810.3,16.53,9.49,9.63,0,*41
1529482078.62,39540,19.56,74808.0,16.53,9.39,9.53,0,*4B
1529482079.86,39541,19.56,74806.3,16.51,9.25,9.39,0,*49
1529482081.07,39542,19.56,74808.5,16.53,8.37,8.15,0,*45
1529482082.29,39543,19.56,74806.3,16.47,8.87,8.87,0,*41
1529482083.55,39544,19.56,74808.8,16.47,9.01,8.89,0,*47
1529482084.76,39545,19.56,74808.3,16.43,8.61,8.59,0,*48
1529482085.95,39546,19.56,74810.8,16.45,8.15,8.09,0,*4B
1529482087.13,39547,19.56,74810.3,16.43,7.37,7.33,0,*45
1529482088.31,39548,19.56,74810.3,16.39,7.33,7.33,0,*43
1529482089.55,39549,19.56,74806.0,16.33,8.51,8.45,0,*4D
1529482090.78,39550,19.56,74810.0,16.33,8.65,8.71,0,*45
1529482091.99,39551,19.56,74808.5,16.33,8.61,8.65,0,*45
1529482093.18,39552,19.56,74808.8,16.31,8.79,8.79,0,*40
1529482094.42,39553,19.56,74810.0,16.31,8.41,8.41,0,*41
1529482095.66,39554,19.56,74806.8,16.29,6.79,6.65,0,*42
1529482096.86,39555,19.56,74808.5,16.23,5.55,5.49,0,*49
1529482098.05,39556,19.56,74804.0,16.19,4.19,4.19,0,*4E
1529482099.26,39557,19.56,74802.0,16.15,4.31,4.45,0,*40
1529482100.47,39558,19.56,74800.8,16.11,4.81,5.01,0,*41
1529482101.68,39559,19.56,74802.8,16.07,4.37,4.71,0,*4C
1529482102.88,39560,19.56,74802.5,16.05,5.15,5.45,0,*43
1529482104.08,39561,19.56,74806.0,15.99,4.79,5.29,0,*45
1529482105.28,39562,19.56,74806.5,15.97,5.63,6.33,0,*4A
1529482106.47,39563,19.56,74804.3,15.95,6.33,6.97,0,*41
1529482107.69,39564,19.56,74806.5,15.93,6.73,7.51,0,*4F
1529482108.87,39565,19.56,74806.8,15.95,7.29,7.97,0,*4C
1529482110.1,39566,19.56,74806.0,15.93,6.61,7.29,0,*41
1529482111.28,39567,19.56,74808.3,15.91,6.83,7.59,0,*49
1529482112.5,39568,19.56,74810.0,15.91,5.93,6.69,0,*46
1529482113.7,39569,19.56,74808.0,15.89,6.21,6.93,0,*41
1529482114.95,39570,19.56,74804.5,15.89,5.89,6.69,0,*4D
1529482116.15,39571,19.56,74804.8,15.83,5.45,6.17,0,*4F
1529482117.35,39572,19.63,74808.0,15.83,6.13,7.05,0,*4E
1529482118.6,39573,19.63,74810.5,15.81,6.57,7.47,0,*4B
1529482119.83,39574,19.63,74808.5,15.81,7.55,8.33,0,*43
1529482121.03,39575,19.63,74808.0,15.79,7.45,8.09,0,*4D
1529482122.24,39576,19.56,74806.8,15.81,7.55,8.27,0,*44
1529482123.49,39577,19.63,74806.8,15.79,7.91,8.59,0,*43